STARLINK-1840 (47131 NORAD) Tracking and Keplerian Element Data
This shows tracking and keplerian element data for the satellite.
Feedback or suggestion? Click here.
Element | Value |
Catalog | 47131 |
Name | STARLINK-1840 |
Epoch Orbit | 975 |
Epoch Day | 21.16668981 |
Epoch Year | 2021 |
RAAN | 72.8985 |
Inclination | 53.0552 |
Eccentricity | 0.0001898 |
Argument of Perigee | 27.6378 |
Mean Anonmoly | 41.2411 |
Mean Motion | 15.62740412 |
Decay Rate | 0.00044384 |
L1 | 1 47131U 20088K 21021.16668981 .00044384 00000-0 48815-3 0 9997 |
L2 | 2 47131 53.0552 72.8985 0001898 27.6378 41.2411 15.62740412 9752 |
Live tracking and technical data element details for STARLINK-1840 (NORAD 47131). STARLINK-1840 can be tracked NOW for your location showing map with azimuth and elevation plus other details from your city location.
Track the satellite on the map from your city or location and see movement details for azimuth, elevation, latitude, longitude, range, height, and movement on the map or in text.
IsCatalogInMostPopularTable: catalog: 47131, numindb: 16
Update: records affected: 1
GetName: 47131 STARLINK-1840
Hit Count: updated at: Fri, 22 Jan 2021 15:56:55 GMT